Location: Kelowna
(49.8880°N, 119.4960°W)
Time: 15:56:28
(UTC-07:00)

TIGRISAT - Pass Details

Date: 27 April 2024
Orbit: 594 x 672 km, 97.7° (Epoch: 27 May)

Event Time Altitude Azimuth Distance (km) Brightness Sun altitude
Rises 04:09:20 0° 145° (SE) 2,904 ? -13.2°
Reaches altitude 10° 04:11:37 10° 139° (SE) 1,989 ? -12.9°
Maximum altitude 04:15:40 41° 69° (ENE) 894 ? -12.4°
Drops below altitude 10° 04:19:40 10° 359° (N) 1,964 ? -12.0°
Sets 04:21:55 0° 353° (N) 2,864 ? -11.7°
